Time,TemperatureF,DewpointF,PressureIn,WindDirection,WindDirectionDegrees,WindSpeedMPH,WindSpeedGustMPH,Humidity,HourlyPrecipIn,Conditions,Clouds,dailyrainin,SolarRadiationWatts/m^2,SoftwareType,DateUTC
2013-09-16 00:11:00,57.0,51.0,-100.00,NNW,342,5.0,28.0,80,0.00,,,0.40,0.000000,,2013-09-16 07:11:00,
2013-09-16 00:21:00,57.0,51.0,-100.00,NNW,342,5.0,28.0,80,0.00,,,0.40,0.000000,,2013-09-16 07:21:00,
2013-09-16 00:32:00,57.0,51.0,-100.00,NNW,342,5.0,28.0,80,0.00,,,0.40,0.000000,,2013-09-16 07:32:00,
2013-09-16 00:43:00,57.0,51.0,-100.00,NNW,342,5.0,28.0,80,0.00,,,0.40,0.000000,,2013-09-16 07:43:00,
2013-09-16 01:11:00,57.0,53.0,-100.00,WNW,293,4.0,13.0,87,0.00,,,0.40,0.000000,,2013-09-16 08:11:00,
2013-09-16 01:22:00,57.0,53.0,-100.00,WNW,293,4.0,13.0,87,0.00,,,0.40,0.000000,,2013-09-16 08:22:00,
2013-09-16 01:31:00,57.0,53.0,-100.00,WNW,293,4.0,13.0,87,0.00,,,0.40,0.000000,,2013-09-16 08:31:00,
2013-09-16 01:42:00,57.0,53.0,-100.00,WNW,293,4.0,13.0,87,0.00,,,0.40,0.000000,,2013-09-16 08:42:00,
2013-09-16 02:11:00,56.0,53.0,-100.00,ENE,68,4.0,8.0,89,0.00,,,0.40,0.000000,,2013-09-16 09:11:00,
2013-09-16 02:22:00,56.0,53.0,-100.00,ENE,68,4.0,8.0,89,0.00,,,0.40,0.000000,,2013-09-16 09:22:00,
2013-09-16 02:33:00,56.0,53.0,-100.00,ENE,68,4.0,8.0,89,0.00,,,0.40,0.000000,,2013-09-16 09:33:00,
2013-09-16 02:43:00,56.0,53.0,-100.00,ENE,68,4.0,8.0,89,0.00,,,0.40,0.000000,,2013-09-16 09:43:00,
2013-09-16 03:12:00,56.0,52.0,-100.00,ENE,69,3.0,6.0,85,0.00,,,0.40,0.000000,,2013-09-16 10:12:00,
2013-09-16 03:23:00,56.0,52.0,-100.00,ENE,69,3.0,6.0,85,0.00,,,0.40,0.000000,,2013-09-16 10:23:00,
2013-09-16 03:32:00,56.0,52.0,-100.00,ENE,69,3.0,6.0,85,0.00,,,0.40,0.000000,,2013-09-16 10:32:00,
2013-09-16 03:42:00,56.0,52.0,-100.00,ENE,69,3.0,6.0,85,0.00,,,0.40,0.000000,,2013-09-16 10:42:00,
2013-09-16 04:12:00,53.0,51.0,-100.00,SE,134,2.0,7.0,93,0.00,,,0.40,0.000000,,2013-09-16 11:12:00,
2013-09-16 04:22:00,53.0,51.0,-100.00,SE,134,2.0,7.0,93,0.00,,,0.40,0.000000,,2013-09-16 11:22:00,
2013-09-16 04:33:00,53.0,51.0,-100.00,SE,134,2.0,7.0,93,0.00,,,0.40,0.000000,,2013-09-16 11:33:00,
2013-09-16 04:42:00,53.0,51.0,-100.00,SE,134,2.0,7.0,93,0.00,,,0.40,0.000000,,2013-09-16 11:42:00,
2013-09-16 05:12:00,52.0,51.0,-100.00,NW,313,5.0,7.0,98,0.00,,,0.40,0.000000,,2013-09-16 12:12:00,
2013-09-16 05:22:00,52.0,51.0,-100.00,NW,313,5.0,7.0,98,0.00,,,0.40,0.000000,,2013-09-16 12:22:00,
2013-09-16 05:32:00,52.0,51.0,-100.00,NW,313,5.0,7.0,98,0.00,,,0.40,0.000000,,2013-09-16 12:32:00,
2013-09-16 05:42:00,52.0,51.0,-100.00,NW,313,5.0,7.0,98,0.00,,,0.40,0.000000,,2013-09-16 12:42:00,
2013-09-16 06:11:00,53.0,52.0,-100.00,NW,319,5.0,7.0,96,0.01,,,0.41,0.000000,,2013-09-16 13:11:00,
2013-09-16 06:21:00,53.0,52.0,-100.00,NW,319,5.0,7.0,96,0.01,,,0.41,0.000000,,2013-09-16 13:21:00,
2013-09-16 06:32:00,53.0,52.0,-100.00,NW,319,5.0,7.0,96,0.01,,,0.41,0.000000,,2013-09-16 13:32:00,
2013-09-16 06:42:00,53.0,52.0,-100.00,NW,319,5.0,7.0,96,0.01,,,0.41,0.000000,,2013-09-16 13:42:00,
2013-09-16 07:11:00,53.0,52.0,-100.00,WNW,290,2.0,6.0,95,0.00,,,0.41,0.000000,,2013-09-16 14:11:00,
2013-09-16 07:21:00,53.0,52.0,-100.00,WNW,290,2.0,6.0,95,0.00,,,0.41,0.000000,,2013-09-16 14:21:00,
2013-09-16 07:32:00,53.0,52.0,-100.00,WNW,290,2.0,6.0,95,0.00,,,0.41,0.000000,,2013-09-16 14:32:00,
2013-09-16 07:42:00,53.0,52.0,-100.00,WNW,290,2.0,6.0,95,0.00,,,0.41,0.000000,,2013-09-16 14:42:00,
2013-09-16 08:11:00,57.0,52.0,-100.00,WSW,255,4.0,8.0,84,0.00,,,0.41,0.000000,,2013-09-16 15:11:00,
2013-09-16 08:22:00,57.0,52.0,-100.00,WSW,255,4.0,8.0,84,0.00,,,0.41,0.000000,,2013-09-16 15:22:00,
2013-09-16 08:33:00,57.0,52.0,-100.00,WSW,255,4.0,8.0,84,0.00,,,0.41,0.000000,,2013-09-16 15:33:00,
2013-09-16 08:43:00,57.0,52.0,-100.00,WSW,255,4.0,8.0,84,0.00,,,0.41,0.000000,,2013-09-16 15:43:00,
2013-09-16 09:12:00,62.0,51.0,-100.00,West,277,10.0,15.0,67,0.00,,,0.41,9.000000,,2013-09-16 16:12:00,
2013-09-16 09:23:00,62.0,51.0,-100.00,West,277,10.0,15.0,67,0.00,,,0.41,9.000000,,2013-09-16 16:23:00,
2013-09-16 09:32:00,62.0,51.0,-100.00,West,277,10.0,15.0,67,0.00,,,0.41,9.000000,,2013-09-16 16:32:00,
2013-09-16 09:43:00,62.0,51.0,-100.00,West,277,10.0,15.0,67,0.00,,,0.41,9.000000,,2013-09-16 16:43:00,
2013-09-16 10:12:00,66.0,49.0,-100.00,WNW,282,15.0,21.0,54,0.00,,,0.41,125.000000,,2013-09-16 17:12:00,
2013-09-16 10:23:00,66.0,49.0,-100.00,WNW,282,15.0,21.0,54,0.00,,,0.41,125.000000,,2013-09-16 17:23:00,
2013-09-16 10:33:00,66.0,49.0,-100.00,WNW,282,15.0,21.0,54,0.00,,,0.41,125.000000,,2013-09-16 17:33:00,
2013-09-16 10:42:00,66.0,49.0,-100.00,WNW,282,15.0,21.0,54,0.00,,,0.41,125.000000,,2013-09-16 17:42:00,
2013-09-16 11:12:00,68.0,48.0,-100.00,WNW,286,13.0,22.0,49,0.00,,,0.41,362.000000,,2013-09-16 18:12:00,
2013-09-16 11:22:00,68.0,48.0,-100.00,WNW,286,13.0,22.0,49,0.00,,,0.41,362.000000,,2013-09-16 18:22:00,
2013-09-16 11:32:00,68.0,48.0,-100.00,WNW,286,13.0,22.0,49,0.00,,,0.41,362.000000,,2013-09-16 18:32:00,
2013-09-16 11:42:00,68.0,48.0,-100.00,WNW,286,13.0,22.0,49,0.00,,,0.41,362.000000,,2013-09-16 18:42:00,
2013-09-16 12:11:00,69.0,47.0,-100.00,West,280,10.0,18.0,46,0.00,,,0.41,503.000000,,2013-09-16 19:11:00,
2013-09-16 12:22:00,69.0,47.0,-100.00,West,280,10.0,18.0,46,0.00,,,0.41,503.000000,,2013-09-16 19:22:00,
2013-09-16 12:31:00,69.0,47.0,-100.00,West,280,10.0,18.0,46,0.00,,,0.41,503.000000,,2013-09-16 19:31:00,
2013-09-16 12:42:00,69.0,47.0,-100.00,West,280,10.0,18.0,46,0.00,,,0.41,503.000000,,2013-09-16 19:42:00,
2013-09-16 13:11:00,72.0,49.0,-100.00,WNW,285,10.0,17.0,44,0.00,,,0.41,505.000000,,2013-09-16 20:11:00,
2013-09-16 13:22:00,72.0,49.0,-100.00,WNW,285,10.0,17.0,44,0.00,,,0.41,505.000000,,2013-09-16 20:22:00,
2013-09-16 13:32:00,72.0,49.0,-100.00,WNW,285,10.0,17.0,44,0.00,,,0.41,505.000000,,2013-09-16 20:32:00,
2013-09-16 13:42:00,72.0,49.0,-100.00,WNW,285,10.0,17.0,44,0.00,,,0.41,505.000000,,2013-09-16 20:42:00,
2013-09-16 14:11:00,71.0,47.0,-100.00,West,269,7.0,17.0,42,0.00,,,0.41,555.000000,,2013-09-16 21:11:00,
2013-09-16 14:21:00,71.0,47.0,-100.00,West,269,7.0,17.0,42,0.00,,,0.41,555.000000,,2013-09-16 21:21:00,
2013-09-16 14:34:00,71.0,47.0,-100.00,West,269,7.0,17.0,42,0.00,,,0.41,555.000000,,2013-09-16 21:34:00,
2013-09-16 14:44:00,71.0,47.0,-100.00,West,269,7.0,17.0,42,0.00,,,0.41,555.000000,,2013-09-16 21:44:00,
2013-09-16 15:13:00,73.0,47.0,-100.00,WNW,287,11.0,20.0,40,0.00,,,0.41,499.000000,,2013-09-16 22:13:00,
2013-09-16 15:24:00,73.0,47.0,-100.00,WNW,287,11.0,20.0,40,0.00,,,0.41,499.000000,,2013-09-16 22:24:00,
2013-09-16 15:33:00,73.0,47.0,-100.00,WNW,287,11.0,20.0,40,0.00,,,0.41,499.000000,,2013-09-16 22:33:00,
2013-09-16 15:42:00,73.0,47.0,-100.00,WNW,287,11.0,20.0,40,0.00,,,0.41,499.000000,,2013-09-16 22:42:00,
2013-09-16 16:12:00,72.0,46.0,-100.00,WNW,285,11.0,18.0,40,0.00,,,0.41,324.000000,,2013-09-16 23:12:00,
2013-09-16 16:22:00,72.0,46.0,-100.00,WNW,285,11.0,18.0,40,0.00,,,0.41,324.000000,,2013-09-16 23:22:00,
2013-09-16 16:34:00,72.0,46.0,-100.00,WNW,285,11.0,18.0,40,0.00,,,0.41,324.000000,,2013-09-16 23:34:00,
2013-09-16 16:43:00,72.0,46.0,-100.00,WNW,285,11.0,18.0,40,0.00,,,0.41,324.000000,,2013-09-16 23:43:00,
2013-09-16 17:11:00,72.0,45.0,-100.00,West,281,14.0,20.0,38,0.00,,,0.41,260.000000,,2013-09-17 00:11:00,
2013-09-16 17:21:00,72.0,45.0,-100.00,West,281,14.0,20.0,38,0.00,,,0.41,260.000000,,2013-09-17 00:21:00,
2013-09-16 17:32:00,72.0,45.0,-100.00,West,281,14.0,20.0,38,0.00,,,0.41,260.000000,,2013-09-17 00:32:00,
2013-09-16 17:42:00,72.0,45.0,-100.00,West,281,14.0,20.0,38,0.00,,,0.41,260.000000,,2013-09-17 00:42:00,
2013-09-16 18:11:00,66.0,45.0,-100.00,West,279,10.0,22.0,46,0.00,,,0.41,51.000000,,2013-09-17 01:11:00,
2013-09-16 18:21:00,66.0,45.0,-100.00,West,279,10.0,22.0,46,0.00,,,0.41,51.000000,,2013-09-17 01:21:00,
2013-09-16 18:32:00,66.0,45.0,-100.00,West,279,10.0,22.0,46,0.00,,,0.41,51.000000,,2013-09-17 01:32:00,
2013-09-16 18:42:00,66.0,45.0,-100.00,West,279,10.0,22.0,46,0.00,,,0.41,51.000000,,2013-09-17 01:42:00,
2013-09-16 19:11:00,63.0,44.0,-100.00,WNW,282,15.0,22.0,49,0.00,,,0.41,0.000000,,2013-09-17 02:11:00,
2013-09-16 19:22:00,63.0,44.0,-100.00,WNW,282,15.0,22.0,49,0.00,,,0.41,0.000000,,2013-09-17 02:22:00,
2013-09-16 19:32:00,63.0,44.0,-100.00,WNW,282,15.0,22.0,49,0.00,,,0.41,0.000000,,2013-09-17 02:32:00,
2013-09-16 19:42:00,63.0,44.0,-100.00,WNW,282,15.0,22.0,49,0.00,,,0.41,0.000000,,2013-09-17 02:42:00,
2013-09-16 20:11:00,59.0,43.0,-100.00,WNW,283,12.0,23.0,56,0.00,,,0.41,0.000000,,2013-09-17 03:11:00,
2013-09-16 20:23:00,59.0,43.0,-100.00,WNW,283,12.0,23.0,56,0.00,,,0.41,0.000000,,2013-09-17 03:23:00,
2013-09-16 20:34:00,59.0,43.0,-100.00,WNW,283,12.0,23.0,56,0.00,,,0.41,0.000000,,2013-09-17 03:34:00,
2013-09-16 20:44:00,59.0,43.0,-100.00,WNW,283,12.0,23.0,56,0.00,,,0.41,0.000000,,2013-09-17 03:44:00,
2013-09-16 21:14:00,59.0,45.0,-100.00,WNW,299,12.0,20.0,59,0.00,,,0.40,0.000000,,2013-09-17 04:14:00,
2013-09-16 21:24:00,59.0,45.0,-100.00,WNW,299,12.0,20.0,59,0.00,,,0.40,0.000000,,2013-09-17 04:24:00,
2013-09-16 21:34:00,59.0,45.0,-100.00,WNW,299,12.0,20.0,59,0.00,,,0.40,0.000000,,2013-09-17 04:34:00,
2013-09-16 21:44:00,59.0,45.0,-100.00,WNW,299,12.0,20.0,59,0.00,,,0.40,0.000000,,2013-09-17 04:44:00,
2013-09-16 22:12:00,54.0,43.0,-100.00,NW,314,8.0,17.0,66,0.00,,,0.23,0.000000,,2013-09-17 05:12:00,
2013-09-16 22:23:00,54.0,43.0,-100.00,NW,314,8.0,17.0,66,0.00,,,0.23,0.000000,,2013-09-17 05:23:00,
2013-09-16 22:34:00,54.0,43.0,-100.00,NW,314,8.0,17.0,66,0.00,,,0.23,0.000000,,2013-09-17 05:34:00,
2013-09-16 22:42:00,54.0,43.0,-100.00,NW,314,8.0,17.0,66,0.00,,,0.23,0.000000,,2013-09-17 05:42:00,
2013-09-16 23:12:00,54.0,44.0,-100.00,NW,312,7.0,11.0,70,0.00,,,0.01,0.000000,,2013-09-17 06:12:00,
2013-09-16 23:22:00,54.0,44.0,-100.00,NW,312,7.0,11.0,70,0.00,,,0.01,0.000000,,2013-09-17 06:22:00,
2013-09-16 23:32:00,54.0,44.0,-100.00,NW,312,7.0,11.0,70,0.00,,,0.01,0.000000,,2013-09-17 06:32:00,
2013-09-16 23:42:00,54.0,44.0,-100.00,NW,312,7.0,11.0,70,0.00,,,0.01,0.000000,,2013-09-17 06:42:00,